RH
41 39 37 45 58 53 55 61 43 30 36 39 36 48 44 42 39 36 32 31 30 30 30 31 31 33 36 43 44 48 47 47 44
41 40 36 43 42 44 37 39 29 25 31 33 41 50 46 42 41 42 38 33 31 30 34 34 34 38 43 49 52 56 53 50 48
39 37 32 28 33 29 26 27 26 26 31 37 49 50 48 49 50 47 40 35 37 36 36 39 43 45 49 57 57 60 59 58 55
38 34 29 27 28 28 27 31 33 33 37 41 48 52 53 52 48 44 41 39 41 40 42 43 49 56 60 61 58 58 58 60 60
32 31 29 28 24 28 30 35 46 38 42 46 50 55 54 51 51 52 49 49 50 48 52 54 57 66 76 78 64 66 69 66 59
29 30 29 28 25 29 36 42 52 43 48 48 53 53 57 59 64 65 60 58 58 58 57 56 58 97 86 74 74 67 64 64 60
32 34 32 32 30 34 44 46 47 47 52 55 57 59 62 64 63 68 69 71 69 60 61 58 86 99 81 83 77 70 61 61 65
39 39 34 35 37 39 44 45 47 51 56 59 60 66 68 66 70 70 68 72 70 62 62 98 100 100 86 86 82 75 66 68 67
49 46 42 47 50 48 49 52 52 55 62 65 67 67 73 75 75 77 81 77 72 76 98 100 100 100 87 81 82 75 74 69 62
62 58 55 56 62 61 55 54 60 64 68 72 73 72 80 83 85 87 79 71 100 100 97 100 100 98 85 79 77 72 75 67 62
66 75 72 72 70 67 63 63 64 69 74 80 79 80 83 88 90 82 73 100 100 100 100 100 100 94 83 83 84 78 74 64 55
69 77 78 79 85 87 86 87 86 84 83 88 86 84 91 97 100 92 92 96 98 100 100 94 93 90 88 82 78 79 64 61 57
73 72 82 90 89 82 81 85 91 98 100 100 100 100 99 96 89 85 84 84 91 100 100 99 92 89 84 79 78 71 73 61 50
75 77 74 75 82 86 90 94 92 89 89 92 89 87 79 78 76 68 64 97 100 99 100 100 100 96 87 92 83 76 64 54 42
78 82 87 77 75 74 74 78 73 78 85 78 68 66 61 64 68 91 100 96 98 100 99 95 100 99 100 90 90 80 65 49 48
94 90 78 78 72 77 84 77 95 100 99 100 100 100 96 100 92 86 98 100 89 86 90 96 99 98 81 78 80 70 68 68 74
99 100 100 100 100 100 97 100 100 100 100 100 100 100 99 98 93 96 79 76 73 81 85 96 88 90 98 80 77 67 73 87 100
100 96 88 96 100 96 88 100 100 97 93 80 78 78 82 81 74 74 67 67 83 90 75 80 86 92 88 71 72 90 99 100 100
100 100 100 100 100 100 96 99 100 94 90 84 78 84 73 64 80 62 60 65 55 63 79 82 83 78 76 78 98 95 89 98 100
100 100 100 100 100 100 81 89 99 94 79 76 75 60 52 52 47 57 62 61 62 55 57 83 83 88 86 88 90 100 100 100 100
Wind_Speed
38 36 35 33 35 34 34 35 34 34 31 31 29 24 23 24 24 25 27 28 29 31 31 33 35 36 38 42 45 48 51 55 59
38 37 34 36 38 38 34 35 34 35 31 30 25 24 23 25 26 27 29 30 31 32 34 35 36 39 43 46 49 52 55 59 62
38 37 36 38 39 37 35 35 34 34 32 28 25 24 25 28 29 30 31 32 33 33 35 37 40 43 45 48 52 55 58 60 64
38 39 39 38 40 38 36 35 34 33 31 27 25 26 28 29 31 31 31 33 34 36 39 41 44 46 49 51 54 57 60 63 66
39 40 39 40 40 38 37 34 33 32 30 28 28 29 29 29 30 31 33 35 37 39 42 43 47 48 51 52 56 58 62 65 66
40 39 39 40 39 38 36 34 32 33 31 30 31 30 30 31 31 33 36 38 41 42 44 48 49 50 49 52 56 61 64 66 68
41 39 40 40 40 38 35 34 35 35 33 32 32 33 33 34 34 36 38 41 43 45 48 50 52 49 51 53 59 63 66 68 70
39 39 38 39 39 38 37 37 37 36 36 36 35 35 34 36 37 40 42 44 46 49 50 53 51 49 56 57 61 65 68 69 71
39 38 37 39 40 39 38 38 39 38 37 38 38 37 37 39 40 42 45 46 49 49 54 51 48 55 59 62 64 67 69 70 72
40 39 38 39 41 41 41 40 40 39 39 39 40 39 40 42 44 45 47 48 53 55 52 54 59 61 64 67 66 69 70 71 73
44 41 40 41 42 41 41 41 41 40 40 41 42 43 43 45 48 49 51 54 55 56 56 61 64 65 66 67 68 70 72 73 76
48 46 44 43 42 42 42 42 42 43 43 44 46 48 50 51 53 54 56 58 59 61 63 65 66 67 66 68 70 72 76 76 79
52 51 48 48 47 47 47 47 48 50 50 52 54 55 56 56 58 58 60 61 63 64 65 66 66 66 67 71 73 75 76 79 85
55 54 53 52 52 52 52 53 54 55 56 58 59 60 61 61 61 62 63 64 64 64 63 64 64 68 70 72 77 80 82 84 88
58 58 56 56 57 56 56 58 60 61 60 62 63 65 65 65 65 65 66 65 62 62 67 67 68 69 71 76 76 81 86 91 95
55 58 60 60 60 60 59 63 62 62 64 63 64 65 65 63 64 63 63 63 65 68 69 71 72 73 76 77 79 83 85 91 96
54 55 59 63 67 69 48 55 55 58 60 64 66 69 69 63 65 65 68 71 70 72 72 73 75 75 76 82 83 87 89 91 91
52 57 61 61 61 61 61 62 62 64 69 71 74 73 72 71 72 72 73 75 73 75 78 77 72 75 78 78 83 85 87 89 95
46 52 55 58 63 65 68 72 67 71 72 75 74 74 74 74 77 78 78 77 74 74 73 73 75 76 75 79 81 88 92 96 101
63 57 57 61 62 66 66 70 72 73 74 74 74 74 74 74 75 74 73 75 76 79 77 77 79 79 81 86 90 93 97 102 107
Wind_Direction
261 263 269 266 268 274 272 277 281 283 289 292 294 290 289 288 289 290 294 298 299 300 303 307 310 315 317 319 321 325 327 330 332
260 261 265 265 266 270 272 276 282 284 285 289 287 284 282 284 287 291 293 294 296 300 304 307 311 314 316 316 318 320 322 325 326
256 261 261 263 264 267 271 274 278 280 282 281 281 278 278 282 285 289 291 293 297 299 303 307 310 311 313 317 319 319 321 323 324
255 258 258 261 262 265 267 270 275 275 278 278 278 275 278 283 288 289 290 293 296 301 303 307 311 313 316 316 318 318 320 324 325
255 256 258 258 260 262 265 266 268 272 273 274 275 276 280 283 285 288 291 294 298 302 307 310 312 314 314 316 317 320 321 324 326
255 258 259 263 260 258 262 263 266 269 270 272 273 273 276 281 286 291 295 299 303 307 311 312 311 314 315 315 317 319 321 325 326
258 259 261 261 259 257 257 261 264 268 268 270 270 273 277 281 287 295 300 301 304 308 309 309 312 313 315 315 316 319 320 322 325
257 257 260 256 258 256 258 262 263 266 267 268 270 274 280 285 289 294 300 302 306 307 306 312 313 311 317 316 316 317 319 322 325
252 254 255 255 257 259 260 263 264 266 266 267 272 276 282 287 291 294 299 302 304 304 306 309 310 311 314 314 315 316 318 323 326
250 252 254 253 255 259 264 265 265 265 267 270 273 277 283 287 290 293 297 297 304 308 307 307 308 312 312 312 313 314 318 322 325
247 249 251 252 255 260 264 265 264 265 269 273 276 280 283 285 288 291 294 298 303 306 305 305 309 310 312 311 312 314 317 321 324
245 247 251 254 257 260 265 266 267 270 273 275 277 278 279 283 286 290 293 297 300 304 301 303 306 309 308 309 311 312 315 318 322
245 247 249 253 256 260 263 266 269 271 273 274 276 279 282 286 289 290 293 296 299 300 300 302 305 305 308 309 311 312 314 318 320
249 249 251 253 255 258 262 265 268 269 272 275 278 280 282 284 286 289 290 293 296 297 299 301 304 306 308 307 311 313 314 315 321
253 252 253 255 257 260 263 264 266 268 271 273 276 278 281 284 285 285 286 292 292 295 298 300 303 305 307 309 311 312 314 318 321
258 256 257 260 261 261 262 270 267 269 272 276 277 278 280 279 279 286 286 287 290 291 295 299 302 304 305 307 308 311 315 317 318
250 256 259 259 259 259 262 268 270 269 270 270 271 272 272 278 280 281 283 287 289 291 295 298 301 302 304 304 305 311 313 313 314
256 255 256 260 260 256 256 260 264 266 266 269 272 274 274 275 279 282 283 285 289 295 297 296 299 299 301 306 309 311 309 310 311
247 255 257 260 262 262 261 260 260 263 263 266 272 274 277 280 281 284 286 287 293 292 293 294 294 300 302 306 307 305 306 307 310
245 246 253 257 260 266 266 263 262 265 269 269 274 275 277 278 278 282 288 290 291 292 293 297 298 300 301 305 307 305 307 309 311